| time (UTC) | temp F | wind direction | speed MPH | gust MPH | rain 1hr in | rain 24hr in | rain mn in | humidity % | barometer mb |
| 20260906220623 | 0 | 119 | 2.0 | 3.0 | 0.00 | 0.00 | 0.00 | 1060.3 | |
| 20260906220118 | 0 | 118 | 1.0 | 2.0 | 0.00 | 0.00 | 0.00 | 1060.3 | |
| 20260906215617 | 0 | 118 | 1.0 | 3.0 | 0.00 | 0.00 | 0.00 | 1060.2 | |
| 20260906215115 | 0 | 86 | 1.0 | 3.0 | 0.00 | 0.00 | 0.00 | 1060.3 | |
| 20260906214614 | 0 | 169 | 3.0 | 5.0 | 0.00 | 0.00 | 0.00 | 1060.6 | |
| 20260906214109 | 0 | 121 | 1.0 | 3.0 | 0.00 | 0.00 | 0.00 | 1060.4 | |
| 20260906213609 | 0 | 133 | 1.0 | 2.0 | 0.00 | 0.00 | 0.00 | 1060.7 | |
| 20260906213103 | 0 | 93 | 1.0 | 3.0 | 0.00 | 0.00 | 0.00 | 1060.4 | |
| 20260906212600 | 0 | 125 | 3.0 | 3.0 | 0.00 | 0.00 | 0.00 | 1060.7 | |
| 20260906212056 | 0 | 90 | 1.0 | 3.0 | 0.00 | 0.00 | 0.00 | 1060.7 | |
| 20260906211555 | 0 | 131 | 3.0 | 6.0 | 0.00 | 0.00 | 0.00 | 1061.0 | |
| 20260906211051 | 0 | 70 | 3.0 | 6.0 | 0.00 | 0.00 | 0.00 | 1061.0 | |
| 20260906210546 | 0 | 148 | 4.0 | 5.0 | 0.00 | 0.00 | 0.00 | 1060.8 | |
| 20260906210041 | 0 | 120 | 1.0 | 5.0 | 0.00 | 0.00 | 0.00 | 1061.1 | |
| 20260906205537 | 0 | 29 | 3.0 | 5.0 | 0.00 | 0.00 | 0.00 | 1061.1 | |
| 20260906205033 | 0 | 91 | 2.0 | 5.0 | 0.00 | 0.00 | 0.00 | 1061.2 | |
| 20260906204532 | 0 | 106 | 1.0 | 2.0 | 0.00 | 0.00 | 0.00 | 1061.1 | |
| 20260906204032 | 0 | 97 | 2.0 | 3.0 | 0.00 | 0.00 | 0.00 | 1061.2 | |
| 20260906203532 | 0 | 140 | 1.0 | 2.0 | 0.00 | 0.00 | 0.00 | 1061.4 | |
| 20260906203027 | 0 | 92 | 1.0 | 6.0 | 0.00 | 0.00 | 0.00 | 1061.4 | |
| 20260906202523 | 0 | 132 | 1.0 | 2.0 | 0.00 | 0.00 | 0.00 | 1061.5 | |
| 20260906202019 | 0 | 131 | 3.0 | 5.0 | 0.00 | 0.00 | 0.00 | 1061.6 | |
| 20260906201518 | 0 | 15 | 3.0 | 5.0 | 0.00 | 0.00 | 0.00 | 1061.4 | |
| 20260906201018 | 0 | 114 | 1.0 | 5.0 | 0.00 | 0.00 | 0.00 | 1061.6 | |
| 20260906200514 | 0 | 129 | 0.0 | 2.0 | 0.00 | 0.00 | 0.00 | 1061.6 | |
| 20260906200010 | 0 | 82 | 2.0 | 3.0 | 0.00 | 0.00 | 0.00 | 1061.5 | |
| 20260906195505 | 0 | 146 | 2.0 | 2.0 | 0.00 | 0.00 | 0.00 | 1061.7 | |
| 20260906195001 | 0 | 125 | 1.0 | 2.0 | 0.00 | 0.00 | 0.00 | 1061.8 | |
| 20260906194457 | 0 | 162 | 2.0 | 3.0 | 0.00 | 0.00 | 0.00 | 1061.7 | |
| 20260906193952 | 0 | 180 | 2.0 | 5.0 | 0.00 | 0.00 | 0.00 | 1062.0 | |
| 20260906193447 | 0 | 68 | 2.0 | 7.0 | 0.00 | 0.00 | 0.00 | 1062.3 | |
| 20260906192943 | 0 | 63 | 5.0 | 7.0 | 0.00 | 0.00 | 0.00 | 1062.4 | |
| 20260906192437 | 0 | 115 | 2.0 | 6.0 | 0.00 | 0.00 | 0.00 | 1062.1 | |
| 20260906191937 | 0 | 22 | 3.0 | 5.0 | 0.00 | 0.00 | 0.00 | 1062.4 | |
| 20260906191431 | 0 | 118 | 3.0 | 3.0 | 0.00 | 0.00 | 0.00 | 1062.2 | |
| 20260906190931 | 0 | 158 | 1.0 | 3.0 | 0.00 | 0.00 | 0.00 | 1062.1 | |
| 20260906190429 | 0 | 104 | 3.0 | 5.0 | 0.00 | 0.00 | 0.00 | 1062.3 | |
| 20260906185925 | 0 | 122 | 2.0 | 5.0 | 0.00 | 0.00 | 0.00 | 1062.3 | |
| 20260906185424 | 0 | 98 | 2.0 | 6.0 | 0.00 | 0.00 | 0.00 | 1062.0 | |
| 20260906184923 | 0 | 152 | 3.0 | 6.0 | 0.00 | 0.00 | 0.00 | 1062.0 | |
| 20260906184419 | 0 | 50 | 4.0 | 6.0 | 0.00 | 0.00 | 0.00 | 1062.1 | |
| 20260906183914 | 0 | 95 | 3.0 | 5.0 | 0.00 | 0.00 | 0.00 | 1062.0 | |
| 20260906183410 | 0 | 52 | 3.0 | 6.0 | 0.00 | 0.00 | 0.00 | 1062.2 | |
| 20260906182905 | 0 | 79 | 2.0 | 6.0 | 0.00 | 0.00 | 0.00 | 1062.1 | |
| 20260906182401 | 0 | 115 | 3.0 | 6.0 | 0.00 | 0.00 | 0.00 | 1062.1 | |
| 20260906181856 | 0 | 319 | 2.0 | 5.0 | 0.00 | 0.00 | 0.00 | 1062.1 | |
| 20260906181352 | 0 | 341 | 4.0 | 5.0 | 0.00 | 0.00 | 0.00 | 1062.3 | |
| 20260906180848 | 0 | 54 | 2.0 | 3.0 | 0.00 | 0.00 | 0.00 | 1062.4 | |
| 20260906180342 | 0 | 29 | 3.0 | 5.0 | 0.00 | 0.00 | 0.00 | 1062.3 | |
| 20260906175839 | 0 | 321 | 3.0 | 5.0 | 0.00 | 0.00 | 0.00 | 1062.6 | |
| 20260906175334 | 0 | 91 | 2.0 | 6.0 | 0.00 | 0.00 | 0.00 | 1062.5 | |
| 20260906174833 | 0 | 319 | 2.0 | 3.0 | 0.00 | 0.00 | 0.00 | 1062.7 | |
| 20260906174333 | 0 | 186 | 1.0 | 2.0 | 0.00 | 0.00 | 0.00 | 1062.9 | |
| 20260906173828 | 0 | 83 | 2.0 | 3.0 | 0.00 | 0.00 | 0.00 | 1063.0 | |
| 20260906173323 | 0 | 35 | 2.0 | 2.0 | 0.00 | 0.00 | 0.00 | 1063.0 | |
| 20260906172822 | 0 | 109 | 2.0 | 3.0 | 0.00 | 0.00 | 0.00 | 1063.0 | |
| 20260906172319 | 0 | 93 | 1.0 | 2.0 | 0.00 | 0.00 | 0.00 | 1063.3 | |
| 20260906171814 | 0 | 92 | 3.0 | 3.0 | 0.00 | 0.00 | 0.00 | 1063.4 | |
| 20260906171308 | 0 | 109 | 1.0 | 3.0 | 0.00 | 0.00 | 0.00 | 1063.5 | |
| 20260906170804 | 0 | 118 | 3.0 | 6.0 | 0.00 | 0.00 | 0.00 | 1063.4 | |
| 20260906170300 | 0 | 37 | 3.0 | 5.0 | 0.00 | 0.00 | 0.00 | 1063.4 | |
| 20260906165756 | 0 | 162 | 4.0 | 6.0 | 0.00 | 0.00 | 0.00 | 1063.5 | |
| 20260906165250 | 0 | 153 | 1.0 | 2.0 | 0.00 | 0.00 | 0.00 | 1063.7 | |
| 20260906164749 | 0 | 289 | 3.0 | 3.0 | 0.00 | 0.00 | 0.00 | 1063.8 | |
| 20260906164244 | 0 | 143 | 1.0 | 3.0 | 0.00 | 0.00 | 0.00 | 1063.7 | |
| 20260906163740 | 0 | 170 | 3.0 | 3.0 | 0.00 | 0.00 | 0.00 | 1063.6 | |
| 20260906163236 | 0 | 136 | 1.0 | 3.0 | 0.00 | 0.00 | 0.00 | 1063.7 | |
| 20260906162733 | 0 | 49 | 1.0 | 3.0 | 0.00 | 0.00 | 0.00 | 1063.5 | |
| 20260906162227 | 0 | 163 | 2.0 | 2.0 | 0.00 | 0.00 | 0.00 | 1063.9 | |
| 20260906161722 | 0 | 71 | 2.0 | 3.0 | 0.00 | 0.00 | 0.00 | 1063.8 | |
| 20260906161221 | 0 | 146 | 0.0 | 2.0 | 0.00 | 0.00 | 0.00 | 1063.9 | |
| 20260906160720 | 0 | 127 | 0.0 | 1.0 | 0.00 | 0.00 | 0.00 | 1063.9 | |
| 20260906160220 | 0 | 95 | 1.0 | 2.0 | 0.00 | 0.00 | 0.00 | 1063.9 | |
| 20260906155717 | 0 | 150 | 0.0 | 2.0 | 0.00 | 0.00 | 0.00 | 1063.7 | |
| 20260906155212 | 0 | 100 | 3.0 | 3.0 | 0.00 | 0.00 | 0.00 | 1063.8 | |
| 20260906154708 | 0 | 199 | 2.0 | 2.0 | 0.00 | 0.00 | 0.00 | 1064.0 | |
| 20260906154209 | 0 | 152 | 1.0 | 2.0 | 0.00 | 0.00 | 0.00 | 1064.0 | |
| 20260906153706 | 0 | 138 | 1.0 | 2.0 | 0.00 | 0.00 | 0.00 | 1063.7 | |
| 20260906153201 | 0 | 136 | 0.0 | 5.0 | 0.00 | 0.00 | 0.00 | 1063.7 | |
| 20260906152657 | 0 | 143 | 2.0 | 6.0 | 0.00 | 0.00 | 0.00 | 1063.5 | |
| 20260906152151 | 0 | 136 | 2.0 | 2.0 | 0.00 | 0.00 | 0.00 | 1063.6 | |
| 20260906151645 | 0 | 164 | 4.0 | 6.0 | 0.00 | 0.00 | 0.00 | 1063.6 | |
| 20260906151142 | 0 | 175 | 5.0 | 5.0 | 0.00 | 0.00 | 0.00 | 1063.8 | |
| 20260906150636 | 0 | 137 | 1.0 | 1.0 | 0.00 | 0.00 | 0.00 | 1063.9 | |
| 20260906150131 | 0 | 52 | 2.0 | 3.0 | 0.00 | 0.00 | 0.00 | 1063.8 | |
| 20260906145625 | 0 | 127 | 0.0 | 2.0 | 0.00 | 0.00 | 0.00 | 1063.5 | |
| 20260906145119 | 0 | 123 | 1.0 | 2.0 | 0.00 | 0.00 | 0.00 | 1063.5 | |
| 20260906144614 | 0 | 165 | 3.0 | 5.0 | 0.00 | 0.00 | 0.00 | 1063.7 | |
| 20260906144109 | 0 | 178 | 3.0 | 5.0 | 0.00 | 0.00 | 0.00 | 1063.5 | |
| 20260906143604 | 0 | 165 | 4.0 | 6.0 | 0.00 | 0.00 | 0.00 | 1063.6 | |
| 20260906143101 | 0 | 117 | 0.0 | 5.0 | 0.00 | 0.00 | 0.00 | 1063.7 | |
| 20260906142600 | 0 | 139 | 2.0 | 3.0 | 0.00 | 0.00 | 0.00 | 1063.6 | |
| 20260906142055 | 0 | 151 | 2.0 | 3.0 | 0.00 | 0.00 | 0.00 | 1063.6 | |
| 20260906141554 | 0 | 107 | 1.0 | 2.0 | 0.00 | 0.00 | 0.00 | 1063.6 | |
| 20260906141050 | 0 | 126 | 1.0 | 2.0 | 0.00 | 0.00 | 0.00 | 1063.7 | |
| 20260906140548 | 0 | 127 | 1.0 | 2.0 | 0.00 | 0.00 | 0.00 | 1063.8 | |
| 20260906140043 | 0 | 116 | 1.0 | 3.0 | 0.00 | 0.00 | 0.00 | 1063.6 | |
| 20260906135540 | 0 | 88 | 1.0 | 2.0 | 0.00 | 0.00 | 0.00 | 1063.7 | |
| 20260906135036 | 0 | 93 | 1.0 | 1.0 | 0.00 | 0.00 | 0.00 | 1063.8 | |
| 20260906134531 | 0 | 98 | 0.0 | 1.0 | 0.00 | 0.00 | 0.00 | 1063.7 | |
| 20260906134026 | 0 | 139 | 0.0 | 2.0 | 0.00 | 0.00 | 0.00 | 1063.7 | |
| 20260906133522 | 0 | 130 | 1.0 | 3.0 | 0.00 | 0.00 | 0.00 | 1063.6 | |
| 20260906133017 | 0 | 111 | 1.0 | 2.0 | 0.00 | 0.00 | 0.00 | 1063.6 | |
| 20260906132512 | 0 | 134 | 1.0 | 3.0 | 0.00 | 0.00 | 0.00 | 1063.4 | |
| 20260906132008 | 0 | 127 | 0.0 | 2.0 | 0.00 | 0.00 | 0.00 | 1063.6 | |
| 20260906131503 | 0 | 150 | 1.0 | 2.0 | 0.00 | 0.00 | 0.00 | 1063.1 | |
| 20260906130958 | 0 | 129 | 1.0 | 2.0 | 0.00 | 0.00 | 0.00 | 1063.1 | |
| 20260906130458 | 0 | 144 | 0.0 | 1.0 | 0.00 | 0.00 | 0.00 | 1063.3 | |
| 20260906125952 | 0 | 127 | 0.0 | 2.0 | 0.00 | 0.00 | 0.00 | 1063.3 | |
| 20260906125450 | 0 | 151 | 2.0 | 2.0 | 0.00 | 0.00 | 0.00 | 1063.3 | |
| 20260906124949 | 0 | 156 | 0.0 | 1.0 | 0.00 | 0.00 | 0.00 | 1063.0 | |
| 20260906124445 | 0 | 128 | 1.0 | 1.0 | 0.00 | 0.00 | 0.00 | 1063.0 | |
| 20260906123939 | 0 | 140 | 0.0 | 1.0 | 0.00 | 0.00 | 0.00 | 1062.9 | |
| 20260906123439 | 0 | 136 | 0.0 | 1.0 | 0.00 | 0.00 | 0.00 | 1062.8 | |
| 20260906122933 | 0 | 136 | 0.0 | 1.0 | 0.00 | 0.00 | 0.00 | 1063.0 | |
| 20260906122428 | 0 | 133 | 0.0 | 1.0 | 0.00 | 0.00 | 0.00 | 1062.8 | |
| 20260906121925 | 0 | 139 | 0.0 | 0.0 | 0.00 | 0.00 | 0.00 | 1062.5 | |
| 20260906121421 | 0 | 139 | 0.0 | 0.0 | 0.00 | 0.00 | 0.00 | 1062.8 | |
| 20260906120917 | 0 | 124 | 0.0 | 0.0 | 0.00 | 0.00 | 0.00 | 1062.6 | |
| 20260906120412 | 0 | 140 | 0.0 | 0.0 | 0.00 | 0.00 | 0.00 | 1062.7 | |
| 20260906115908 | 0 | 145 | 0.0 | 0.0 | 0.00 | 0.00 | 0.00 | 1062.6 | |
| 20260906115404 | 0 | 137 | 0.0 | 0.0 | 0.00 | 0.00 | 0.00 | 1062.7 | |
| 20260906114903 | 0 | 139 | 0.0 | 0.0 | 0.00 | 0.00 | 0.00 | 1062.3 | |
| 20260906114358 | 0 | 141 | 0.0 | 0.0 | 0.00 | 0.00 | 0.00 | 1062.5 | |
| 20260906113854 | 0 | 141 | 0.0 | 0.0 | 0.00 | 0.00 | 0.00 | 1062.5 | |
| 20260906113352 | 0 | 135 | 0.0 | 1.0 | 0.00 | 0.00 | 0.00 | 1062.6 | |
| 20260906112848 | 0 | 139 | 0.0 | 0.0 | 0.00 | 0.00 | 0.00 | 1062.3 | |
| 20260906112344 | 0 | 138 | 0.0 | 0.0 | 0.00 | 0.00 | 0.00 | 1062.4 | |
| 20260906111843 | 0 | 136 | 0.0 | 1.0 | 0.00 | 0.00 | 0.00 | 1062.1 | |
| 20260906111337 | 0 | 125 | 0.0 | 1.0 | 0.00 | 0.00 | 0.00 | 1062.3 | |
| 20260906110832 | 0 | 136 | 1.0 | 1.0 | 0.00 | 0.00 | 0.00 | 1062.0 | |
| 20260906110328 | 0 | 135 | 0.0 | 1.0 | 0.00 | 0.00 | 0.00 | 1062.3 | |
| 20260906105827 | 0 | 133 | 0.0 | 1.0 | 0.00 | 0.00 | 0.00 | 1062.3 | |
| 20260906105323 | 0 | 138 | 0.0 | 0.0 | 0.00 | 0.00 | 0.00 | 1062.2 | |
| 20260906104819 | 0 | 135 | 0.0 | 0.0 | 0.00 | 0.00 | 0.00 | 1062.2 | |
| 20260906104318 | 0 | 140 | 0.0 | 0.0 | 0.00 | 0.00 | 0.00 | 1062.4 | |
| 20260906103816 | 0 | 138 | 0.0 | 0.0 | 0.00 | 0.00 | 0.00 | 1062.4 | |
| 20260906103315 | 0 | 140 | 0.0 | 0.0 | 0.00 | 0.00 | 0.00 | 1062.4 | |
| 20260906102811 | 0 | 140 | 0.0 | 0.0 | 0.00 | 0.00 | 0.00 | 1062.2 | |
| 20260906102310 | 0 | 131 | 0.0 | 1.0 | 0.00 | 0.00 | 0.00 | 1061.9 | |
| 20260906101805 | 0 | 138 | 0.0 | 1.0 | 0.00 | 0.00 | 0.00 | 1062.0 | |
| 20260906101300 | 0 | 141 | 0.0 | 0.0 | 0.00 | 0.00 | 0.00 | 1062.0 | |
| 20260906100756 | 0 | 142 | 0.0 | 0.0 | 0.00 | 0.00 | 0.00 | 1062.1 | |
| 20260906100255 | 0 | 146 | 0.0 | 0.0 | 0.00 | 0.00 | 0.00 | 1062.0 | |
| 20260906095750 | 0 | 139 | 0.0 | 0.0 | 0.00 | 0.00 | 0.00 | 1062.1 | |
| 20260906095245 | 0 | 140 | 0.0 | 0.0 | 0.00 | 0.00 | 0.00 | 1061.8 | |
| 20260906094744 | 0 | 149 | 0.0 | 1.0 | 0.00 | 0.00 | 0.00 | 1061.8 | |
| 20260906094240 | 0 | 140 | 0.0 | 0.0 | 0.00 | 0.00 | 0.00 | 1061.8 | |
| 20260906093736 | 0 | 140 | 0.0 | 0.0 | 0.00 | 0.00 | 0.00 | 1061.7 | |
| 20260906093231 | 0 | 138 | 0.0 | 0.0 | 0.00 | 0.00 | 0.00 | 1061.8 | |
| 20260906092727 | 0 | 133 | 0.0 | 0.0 | 0.00 | 0.00 | 0.00 | 1061.6 | |
| 20260906092226 | 0 | 143 | 0.0 | 0.0 | 0.00 | 0.00 | 0.00 | 1061.6 | |
| 20260906091722 | 0 | 141 | 0.0 | 0.0 | 0.00 | 0.00 | 0.00 | 1061.6 | |
| 20260906091218 | 0 | 138 | 0.0 | 0.0 | 0.00 | 0.00 | 0.00 | 1061.6 | |
| 20260906090715 | 0 | 135 | 0.0 | 0.0 | 0.00 | 0.00 | 0.00 | 1061.7 | |
| 20260906090213 | 0 | 139 | 0.0 | 0.0 | 0.00 | 0.00 | 0.00 | 1061.6 | |
| 20260906085713 | 0 | 140 | 0.0 | 0.0 | 0.00 | 0.00 | 0.00 | 1061.5 | |
| 20260906085212 | 0 | 139 | 0.0 | 0.0 | 0.00 | 0.00 | 0.00 | 1061.4 | |
| 20260906084706 | 0 | 133 | 0.0 | 0.0 | 0.00 | 0.00 | 0.00 | 1061.4 | |
| 20260906084201 | 0 | 141 | 0.0 | 0.0 | 0.00 | 0.00 | 0.00 | 1061.4 | |
| 20260906083656 | 0 | 146 | 0.0 | 0.0 | 0.00 | 0.00 | 0.00 | 1061.6 | |
| 20260906083151 | 0 | 140 | 0.0 | 0.0 | 0.00 | 0.00 | 0.00 | 1061.5 | |
| 20260906082646 | 0 | 140 | 0.0 | 1.0 | 0.00 | 0.00 | 0.00 | 1061.6 | |
| 20260906082141 | 0 | 140 | 0.0 | 0.0 | 0.00 | 0.00 | 0.00 | 1061.3 | |
| 20260906081637 | 0 | 140 | 0.0 | 0.0 | 0.00 | 0.00 | 0.00 | 1061.4 | |
| 20260906081132 | 0 | 145 | 0.0 | 0.0 | 0.00 | 0.00 | 0.00 | 1061.3 | |
| 20260906080628 | 0 | 151 | 1.0 | 1.0 | 0.00 | 0.00 | 0.00 | 1061.4 | |
| 20260906080125 | 0 | 146 | 0.0 | 0.0 | 0.00 | 0.00 | 0.00 | 1061.5 | |
| 20260906075624 | 0 | 138 | 0.0 | 0.0 | 0.00 | 0.00 | 0.00 | 1061.6 | |
| 20260906075119 | 0 | 138 | 0.0 | 0.0 | 0.00 | 0.00 | 0.00 | 1061.5 | |
| 20260906074614 | 0 | 141 | 0.0 | 0.0 | 0.00 | 0.00 | 0.00 | 1061.6 | |
| 20260906074107 | 0 | 141 | 0.0 | 0.0 | 0.00 | 0.00 | 0.00 | 1061.6 | |
| 20260906073602 | 0 | 140 | 0.0 | 0.0 | 0.00 | 0.00 | 0.00 | 1061.6 | |
| 20260906073058 | 0 | 141 | 0.0 | 0.0 | 0.00 | 0.00 | 0.00 | 1061.4 | |
| 20260906072558 | 0 | 138 | 0.0 | 0.0 | 0.00 | 0.00 | 0.00 | 1061.6 | |
| 20260906072054 | 0 | 139 | 0.0 | 0.0 | 0.00 | 0.00 | 0.00 | 1061.9 | |
| 20260906071551 | 0 | 135 | 0.0 | 0.0 | 0.00 | 0.00 | 0.00 | 1061.7 | |
| 20260906071045 | 0 | 138 | 0.0 | 0.0 | 0.00 | 0.00 | 0.00 | 1061.9 | |
| 20260906070542 | 0 | 142 | 0.0 | 0.0 | 0.00 | 0.00 | 0.00 | 1061.7 | |
| 20260906070037 | 0 | 145 | 0.0 | 0.0 | 0.00 | 0.00 | 0.00 | 1061.7 | |
| 20260906065537 | 0 | 145 | 0.0 | 1.0 | 0.00 | 0.00 | 0.00 | 1061.9 | |
| 20260906065032 | 0 | 146 | 0.0 | 1.0 | 0.00 | 0.00 | 0.00 | 1061.9 | |
| 20260906064528 | 0 | 140 | 0.0 | 0.0 | 0.00 | 0.00 | 0.00 | 1062.0 | |
| 20260906064023 | 0 | 138 | 0.0 | 0.0 | 0.00 | 0.00 | 0.00 | 1061.8 | |
| 20260906063518 | 0 | 138 | 0.0 | 0.0 | 0.00 | 0.00 | 0.00 | 1062.1 | |
| 20260906063014 | 0 | 138 | 0.0 | 0.0 | 0.00 | 0.00 | 0.00 | 1062.2 | |
| 20260906062509 | 0 | 139 | 0.0 | 0.0 | 0.00 | 0.00 | 0.00 | 1062.1 | |
| 20260906062004 | 0 | 138 | 0.0 | 0.0 | 0.00 | 0.00 | 0.00 | 1062.3 | |
| 20260906061500 | 0 | 141 | 0.0 | 0.0 | 0.00 | 0.00 | 0.00 | 1062.3 | |
| 20260906060954 | 0 | 138 | 0.0 | 0.0 | 0.00 | 0.00 | 0.00 | 1062.2 | |
| 20260906060450 | 0 | 147 | 0.0 | 0.0 | 0.00 | 0.00 | 0.00 | 1062.1 | |
| 20260906055947 | 0 | 143 | 0.0 | 0.0 | 0.00 | 0.00 | 0.00 | 1062.1 | |
| 20260906055442 | 0 | 140 | 0.0 | 0.0 | 0.00 | 0.00 | 0.00 | 1062.4 | |
| 20260906054937 | 0 | 139 | 0.0 | 0.0 | 0.00 | 0.00 | 0.00 | 1062.3 | |
| 20260906054432 | 0 | 142 | 0.0 | 0.0 | 0.00 | 0.00 | 0.00 | 1062.1 | |
| 20260906053928 | 0 | 138 | 0.0 | 0.0 | 0.00 | 0.00 | 0.00 | 1062.1 | |
| 20260906053424 | 0 | 140 | 0.0 | 1.0 | 0.00 | 0.00 | 0.00 | 1062.1 | |
| 20260906052920 | 0 | 148 | 1.0 | 1.0 | 0.00 | 0.00 | 0.00 | 1061.9 | |
| 20260906052416 | 0 | 138 | 0.0 | 0.0 | 0.00 | 0.00 | 0.00 | 1061.9 | |
| 20260906051912 | 0 | 138 | 0.0 | 0.0 | 0.00 | 0.00 | 0.00 | 1062.0 | |
| 20260906051413 | 0 | 137 | 0.0 | 0.0 | 0.00 | 0.00 | 0.00 | 1062.0 | |
| 20260906050908 | 0 | 136 | 0.0 | 0.0 | 0.00 | 0.00 | 0.00 | 1062.0 | |
| 20260906050408 | 0 | 127 | 0.0 | 1.0 | 0.00 | 0.00 | 0.00 | 1062.1 | |
| 20260906045907 | 0 | 141 | 0.0 | 1.0 | 0.00 | 0.00 | 0.00 | 1062.0 | |
| 20260906045406 | 0 | 138 | 0.0 | 0.0 | 0.00 | 0.00 | 0.00 | 1062.3 | |
| 20260906044903 | 0 | 141 | 0.0 | 0.0 | 0.00 | 0.00 | 0.00 | 1062.1 | |
| 20260906044402 | 0 | 155 | 1.0 | 2.0 | 0.00 | 0.00 | 0.00 | 1062.1 | |
| 20260906043858 | 0 | 159 | 1.0 | 2.0 | 0.00 | 0.00 | 0.00 | 1062.1 | |
| 20260906043354 | 0 | 143 | 0.0 | 0.0 | 0.00 | 0.00 | 0.00 | 1062.3 | |
| 20260906042849 | 0 | 138 | 0.0 | 0.0 | 0.00 | 0.00 | 0.00 | 1062.4 | |
| 20260906042348 | 0 | 138 | 0.0 | 0.0 | 0.00 | 0.00 | 0.00 | 1062.2 | |
| 20260906041843 | 0 | 140 | 0.0 | 0.0 | 0.00 | 0.00 | 0.00 | 1062.3 | |
| 20260906041339 | 0 | 140 | 0.0 | 0.0 | 0.00 | 0.00 | 0.00 | 1062.1 | |
| 20260906040834 | 0 | 140 | 0.0 | 0.0 | 0.00 | 0.00 | 0.00 | 1062.1 | |
| 20260906040329 | 0 | 137 | 0.0 | 0.0 | 0.00 | 0.00 | 0.00 | 1062.2 | |
| 20260906035824 | 0 | 136 | 0.0 | 0.0 | 0.00 | 0.00 | 0.00 | 1062.2 | |
| 20260906035320 | 0 | 141 | 0.0 | 1.0 | 0.00 | 0.00 | 0.00 | 1062.1 | |
| 20260906034815 | 0 | 141 | 0.0 | 1.0 | 0.00 | 0.00 | 0.00 | 1062.2 | |
| 20260906034314 | 0 | 140 | 0.0 | 1.0 | 0.00 | 0.00 | 0.00 | 1062.1 | |
| 20260906033810 | 0 | 142 | 0.0 | 0.0 | 0.00 | 0.00 | 0.00 | 1061.9 | |
| 20260906033309 | 0 | 143 | 0.0 | 0.0 | 0.00 | 0.00 | 0.00 | 1061.8 | |
| 20260906032806 | 0 | 139 | 0.0 | 0.0 | 0.00 | 0.00 | 0.00 | 1062.1 | |
| 20260906032305 | 0 | 134 | 0.0 | 0.0 | 0.00 | 0.00 | 0.00 | 1061.9 | |
| 20260906031756 | 0 | 141 | 0.0 | 0.0 | 0.00 | 0.00 | 0.00 | 1061.9 | |
| 20260906031253 | 0 | 139 | 0.0 | 0.0 | 0.00 | 0.00 | 0.00 | 1061.9 | |
| 20260906030752 | 0 | 138 | 0.0 | 0.0 | 0.00 | 0.00 | 0.00 | 1061.8 | |
| 20260906030247 | 0 | 134 | 0.0 | 0.0 | 0.00 | 0.00 | 0.00 | 1061.7 | |
| 20260906025747 | 0 | 138 | 0.0 | 0.0 | 0.00 | 0.00 | 0.00 | 1061.8 | |
| 20260906025241 | 0 | 136 | 0.0 | 0.0 | 0.00 | 0.00 | 0.00 | 1061.7 | |
| 20260906024740 | 0 | 136 | 0.0 | 0.0 | 0.00 | 0.00 | 0.00 | 1061.7 | |
| 20260906024239 | 0 | 128 | 0.0 | 1.0 | 0.00 | 0.00 | 0.00 | 1061.4 | |
| 20260906023735 | 0 | 138 | 0.0 | 0.0 | 0.00 | 0.00 | 0.00 | 1061.7 | |
| 20260906023230 | 0 | 136 | 0.0 | 0.0 | 0.00 | 0.00 | 0.00 | 1061.6 | |
| 20260906022726 | 0 | 136 | 0.0 | 0.0 | 0.00 | 0.00 | 0.00 | 1061.6 | |
| 20260906022221 | 0 | 136 | 0.0 | 0.0 | 0.00 | 0.00 | 0.00 | 1061.5 | |
| 20260906021717 | 0 | 136 | 0.0 | 0.0 | 0.00 | 0.00 | 0.00 | 1061.3 | |
| 20260906021215 | 0 | 140 | 0.0 | 0.0 | 0.00 | 0.00 | 0.00 | 1061.3 | |
| 20260906020711 | 0 | 138 | 0.0 | 0.0 | 0.00 | 0.00 | 0.00 | 1061.5 | |
| 20260906020205 | 0 | 136 | 0.0 | 0.0 | 0.00 | 0.00 | 0.00 | 1061.3 | |
| 20260906015700 | 0 | 133 | 0.0 | 0.0 | 0.00 | 0.00 | 0.00 | 1060.9 | |
| 20260906015159 | 0 | 140 | 0.0 | 0.0 | 0.00 | 0.00 | 0.00 | 1060.9 | |
| 20260906014658 | 0 | 139 | 0.0 | 0.0 | 0.00 | 0.00 | 0.00 | 1060.8 | |
| 20260906014154 | 0 | 138 | 0.0 | 0.0 | 0.00 | 0.00 | 0.00 | 1061.1 | |
| 20260906013651 | 0 | 138 | 0.0 | 0.0 | 0.00 | 0.00 | 0.00 | 1060.9 | |
| 20260906013146 | 0 | 131 | 0.0 | 1.0 | 0.00 | 0.00 | 0.00 | 1061.2 | |
| 20260906012645 | 0 | 129 | 0.0 | 0.0 | 0.00 | 0.00 | 0.00 | 1061.1 | |
| 20260906012140 | 0 | 142 | 0.0 | 0.0 | 0.00 | 0.00 | 0.00 | 1060.8 | |
| 20260906011635 | 0 | 141 | 0.0 | 0.0 | 0.00 | 0.00 | 0.00 | 1061.0 | |
| 20260906011131 | 0 | 148 | 0.0 | 0.0 | 0.00 | 0.00 | 0.00 | 1060.7 | |
| 20260906010625 | 0 | 141 | 0.0 | 0.0 | 0.00 | 0.00 | 0.00 | 1060.4 | |
| 20260906010116 | 0 | 147 | 0.0 | 1.0 | 0.00 | 0.00 | 0.00 | 1060.8 | |
| 20260906005615 | 0 | 156 | 0.0 | 1.0 | 0.00 | 0.00 | 0.00 | 1060.7 | |
| 20260906005114 | 0 | 155 | 0.0 | 1.0 | 0.00 | 0.00 | 0.00 | 1060.9 | |
| 20260906004614 | 0 | 147 | 0.0 | 1.0 | 0.00 | 0.00 | 0.00 | 1060.7 | |
| 20260906004108 | 0 | 143 | 1.0 | 2.0 | 0.00 | 0.00 | 0.00 | 1060.9 | |
| 20260906003604 | 0 | 158 | 0.0 | 2.0 | 0.00 | 0.00 | 0.00 | 1061.0 | |
| 20260906003101 | 0 | 157 | 2.0 | 5.0 | 0.00 | 0.00 | 0.00 | 1061.2 | |
| 20260906002600 | 0 | 190 | 4.0 | 6.0 | 0.00 | 0.00 | 0.00 | 1061.0 | |
| 20260906002055 | 0 | 204 | 2.0 | 3.0 | 0.00 | 0.00 | 0.00 | 1061.1 | |
| 20260906001545 | 0 | 153 | 0.0 | 1.0 | 0.00 | 0.00 | 0.00 | 1061.1 | |
| 20260906001044 | 0 | 159 | 1.0 | 3.0 | 0.00 | 0.00 | 0.00 | 1061.2 | |
| 20260906000541 | 0 | 149 | 1.0 | 2.0 | 0.00 | 0.00 | 0.00 | 1060.9 | |
| 20260906000035 | 0 | 137 | 1.0 | 2.0 | 0.00 | 0.00 | 0.00 | 1061.0 | |
| 20260905235529 | 0 | 138 | 0.0 | 2.0 | 0.00 | 0.00 | 0.00 | 1060.9 | |
| 20260905235024 | 0 | 176 | 1.0 | 9.0 | 0.00 | 0.00 | 0.00 | 1060.7 | |
| 20260905234520 | 0 | 127 | 1.0 | 3.0 | 0.00 | 0.00 | 0.00 | 1060.9 | |
| 20260905234014 | 0 | 174 | 7.0 | 13.0 | 0.00 | 0.00 | 0.00 | 1060.9 | |
| 20260905233509 | 0 | 143 | 2.0 | 10.0 | 0.00 | 0.00 | 0.00 | 1060.7 | |
| 20260905233009 | 0 | 119 | 1.0 | 2.0 | 0.00 | 0.00 | 0.00 | 1060.3 | |
| 20260905232504 | 0 | 107 | 1.0 | 2.0 | 0.00 | 0.00 | 0.00 | 1060.4 | |
| 20260905232000 | 0 | 99 | 2.0 | 3.0 | 0.00 | 0.00 | 0.00 | 1060.1 | |
| 20260905231450 | 0 | 78 | 0.0 | 1.0 | 0.00 | 0.00 | 0.00 | 1059.9 | |
| 20260905230947 | 0 | 355 | 1.0 | 2.0 | 0.00 | 0.00 | 0.00 | 1060.3 | |
| 20260905230444 | 0 | 127 | 0.0 | 1.0 | 0.00 | 0.00 | 0.00 | 1060.0 | |
| 20260905225937 | 0 | 141 | 0.0 | 1.0 | 0.00 | 0.00 | 0.00 | 1059.9 | |
| 20260905225432 | 0 | 101 | 1.0 | 1.0 | 0.00 | 0.00 | 0.00 | 1059.8 | |
| 20260905224927 | 0 | 97 | 1.0 | 2.0 | 0.00 | 0.00 | 0.00 | 1059.9 | |
| 20260905224423 | 0 | 121 | 1.0 | 1.0 | 0.00 | 0.00 | 0.00 | 1060.0 | |
| 20260905223916 | 0 | 114 | 0.0 | 2.0 | 0.00 | 0.00 | 0.00 | 1060.2 | |
| 20260905223414 | 0 | 114 | 1.0 | 1.0 | 0.00 | 0.00 | 0.00 | 1060.2 | |
| 20260905222909 | 0 | 136 | 0.0 | 2.0 | 0.00 | 0.00 | 0.00 | 1060.1 | |
| 20260905222408 | 0 | 118 | 1.0 | 1.0 | 0.00 | 0.00 | 0.00 | 1060.1 | |
| 20260905221904 | 0 | 121 | 1.0 | 2.0 | 0.00 | 0.00 | 0.00 | 1060.0 | |
| 20260905221400 | 0 | 101 | 1.0 | 2.0 | 0.00 | 0.00 | 0.00 | 1060.1 |